This demonstration page uses our WeatherBlox Daily Observations layout. Learn more.

Left ArrowRight Arrow

47.50024, -111.30081

Hourly Observations for January 15, 2022

Temp ( °F °C ) Dew Point ( °F °C ) Humidity (%) Winds ( mph kmh ) Pressure ( in mb ) Visibility ( mi km ) Precip ( " mm )
12:53 am 00:53 Clear 39 3.9 25 -3.9 57 57 SW 22 35 30.31 1026 10 16 0.00 0.00
1:53 am 01:53 Clear 39 3.9 25 -3.9 57 57 SW 24 39 30.27 1025 10 16 0.00 0.00
2:53 am 02:53 Clear 39 3.9 24 -4.4 55 55 SW 24 39 30.23 1024 10 16 0.00 0.00
3:53 am 03:53 Clear 41 5 24 -4.4 51 51 SW 26 43 30.22 1023 10 16 0.00 0.00
4:53 am 04:53 Clear 41 5 24 -4.4 51 51 SW 25 41 30.23 1024 10 16 0.00 0.00
5:53 am 05:53 Clear 41 5 23 -5 49 49 SW 20 31 30.25 1025 10 16 0.00 0.00
6:53 am 06:53 Clear 42 5.6 22 -5.6 45 45 SW 29 46 30.20 1023 10 16 0.00 0.00
7:53 am 07:53 Clear 43 6.1 21 -6.1 42 42 SW 23 37 30.19 1022 10 16 0.00 0.00
8:53 am 08:53 Sunny 44 6.7 20 -6.7 38 38 SW 23 37 30.16 1022 10 16 0.00 0.00
9:53 am 09:53 Sunny 44 6.7 19 -7.2 37 37 WSW 23 37 30.19 1022 10 16 0.00 0.00
10:53 am 10:53 Sunny 46 7.8 18 -7.8 32 32 SW 30 48 30.18 1022 10 16 0.00 0.00
11:53 am 11:53 Sunny 45 7.2 17 -8.3 33 33 SW 29 46 30.15 1021 10 16 0.00 0.00
12:53 pm 12:53 Sunny 46 7.8 16 -8.9 30 30 SW 35 56 30.09 1019 10 16 0.00 0.00
1:53 pm 13:53 Sunny 47 8.3 17 -8.3 30 30 SW 35 56 30.06 1018 10 16 0.00 0.00
2:53 pm 14:53 Sunny 47 8.3 18 -7.8 31 31 SW 23 37 30.05 1018 10 16 0.00 0.00
3:53 pm 15:53 Sunny 46 7.8 19 -7.2 34 34 SW 21 33 30.05 1018 10 16 0.00 0.00
4:53 pm 16:53 Sunny 45 7.2 19 -7.2 35 35 SW 18 30 30.06 1018 10 16 0.00 0.00
5:53 pm 17:53 Clear 44 6.7 19 -7.2 37 37 SW 17 28 30.05 1018 10 16 0.00 0.00
6:53 pm 18:53 Clear 44 6.7 19 -7.2 37 37 WSW 22 35 30.07 1018 10 16 0.00 0.00
7:53 pm 19:53 Clear 42 5.6 20 -6.7 41 41 WSW 14 22 30.09 1019 10 16 0.00 0.00
8:53 pm 20:53 Clear 41 5 21 -6.1 45 45 WSW 16 26 30.09 1019 10 16 0.00 0.00
9:53 pm 21:53 Clear 37 2.8 21 -6.1 52 52 SW 13 20 30.10 1019 10 16 0.00 0.00
10:53 pm 22:53 Clear 37 2.8 22 -5.6 54 54 WSW 14 22 30.10 1019 10 16 0.00 0.00
11:53 pm 23:53 Clear 38 3.3 22 -5.6 52 52 WSW 16 26 30.09 1019 10 16 0.00 0.00

Powered by AerisWeather